FW7008 Weather Reports


Display with metric or nautical units.
time (UTC)temp
F
wind
direction
speed
MPH
gust
MPH
rain 1hr
in
rain 24hr
in
rain mn
in
humidity
%
barometer
mb
20260903063707 69 160 0.0 0.0 0.00 0.00 0.00 88 1014.9
20260903063201 69 234 0.0 0.0 0.00 0.00 0.00 87 1014.9
20260903062657 69 145 0.0 0.0 0.00 0.00 0.00 87 1015.2
20260903062152 69 209 0.0 0.0 0.00 0.00 0.00 87 1015.2
20260903061648 69 226 0.0 0.0 0.00 0.00 0.00 86 1015.2
20260903061147 69 224 5.0 8.0 0.00 0.00 0.00 86 1014.9
20260903060642 69 222 0.0 0.0 0.00 0.00 0.00 86 1014.9
20260903060137 70 235 0.0 0.0 0.00 0.00 0.00 85 1014.9
20260903055635 70 234 0.0 0.0 0.00 0.00 0.00 85 1014.9
20260903055133 70 175 4.0 6.0 0.00 0.00 0.00 84 1014.9
20260903054628 70 166 9.0 10.0 0.00 0.00 0.00 84 1014.6
20260903054124 70 251 5.0 9.0 0.00 0.00 0.00 83 1014.9
20260903053619 70 248 2.0 2.0 0.00 0.00 0.00 84 1014.9
20260903053115 70 234 2.0 6.0 0.00 0.00 0.00 84 1014.9
20260903052611 70 242 9.0 11.0 0.00 0.00 0.00 84 1014.9
20260903052106 70 236 10.0 13.0 0.00 0.00 0.00 84 1014.9
20260903051601 70 241 7.0 8.0 0.00 0.00 0.00 84 1014.6
20260903051056 70 231 3.0 8.0 0.00 0.00 0.00 85 1014.9
20260903050555 70 217 5.0 7.0 0.00 0.00 0.00 85 1014.9
20260903050051 70 259 9.0 14.0 0.00 0.00 0.00 85 1014.6
20260903045550 70 219 7.0 10.0 0.00 0.00 0.00 85 1014.9
20260903045047 70 255 6.0 11.0 0.00 0.00 0.00 85 1014.9
20260903044543 70 232 8.0 10.0 0.00 0.00 0.00 85 1014.9
20260903044038 70 245 7.0 8.0 0.00 0.00 0.00 86 1014.6
20260903043533 70 236 10.0 14.0 0.00 0.00 0.00 86 1014.6
20260903043033 70 234 8.0 10.0 0.00 0.00 0.00 86 1014.9
20260903042527 70 252 0.0 1.0 0.00 0.00 0.00 87 1014.9
20260903042023 70 230 0.0 1.0 0.00 0.00 0.00 87 1014.9
20260903041520 70 197 1.0 3.0 0.00 0.00 0.00 87 1014.6
20260903041015 70 195 0.0 0.0 0.00 0.00 0.00 87 1014.6
20260903040514 70 235 0.0 0.0 0.00 0.00 0.00 87 1014.6
20260903040011 70 145 0.0 0.0 0.00 0.00 0.00 86 1014.6
20260903035505 70 191 0.0 0.0 0.00 0.00 0.00 85 1014.6
20260903035001 70 189 0.0 0.0 0.00 0.00 0.00 84 1014.6
20260903034456 70 201 0.0 0.0 0.00 0.00 0.00 84 1014.6
20260903033955 70 145 0.0 0.0 0.00 0.00 0.00 84 1014.6
20260903033451 70 197 0.0 0.0 0.00 0.00 0.00 84 1014.6
20260903032946 70 142 0.0 0.0 0.00 0.00 0.00 83 1014.6
20260903032441 70 170 3.0 5.0 0.00 0.00 0.00 82 1014.6
20260903031936 70 230 4.0 6.0 0.00 0.00 0.00 82 1014.6
20260903031431 70 213 0.0 0.0 0.00 0.00 0.00 82 1014.6
20260903030926 70 238 0.0 0.0 0.00 0.00 0.00 82 1014.2
20260903030422 71 190 0.0 0.0 0.00 0.00 0.00 81 1014.6
20260903025918 71 224 0.0 0.0 0.00 0.00 0.00 81 1014.6
20260903025414 71 184 0.0 0.0 0.00 0.00 0.00 80 1014.6
20260903024908 71 207 4.0 5.0 0.00 0.00 0.00 79 1014.6
20260903024402 71 212 2.0 2.0 0.00 0.00 0.00 79 1014.6
20260903023857 71 212 3.0 5.0 0.00 0.00 0.00 79 1014.6
20260903023353 71 241 0.0 2.0 0.00 0.00 0.00 79 1014.6
20260903022848 71 231 0.0 0.0 0.00 0.00 0.00 80 1014.2
20260903022347 71 222 0.0 0.0 0.00 0.00 0.00 81 1014.2
20260903021846 71 208 5.0 6.0 0.00 0.00 0.00 80 1014.2
20260903021341 71 251 0.0 0.0 0.00 0.00 0.00 81 1014.6
20260903020841 71 256 0.0 0.0 0.00 0.00 0.00 80 1014.6
20260903020337 71 235 0.0 0.0 0.00 0.00 0.00 80 1014.6
20260903015836 71 199 6.0 7.0 0.00 0.00 0.00 79 1014.2
20260903015332 71 240 8.0 10.0 0.00 0.00 0.00 79 1014.6
20260903014827 71 233 0.0 0.0 0.00 0.00 0.00 78 1014.2
20260903014322 72 230 4.0 6.0 0.00 0.00 0.00 78 1014.2
20260903013817 72 240 7.0 10.0 0.00 0.00 0.00 77 1014.6
20260903013316 72 232 5.0 6.0 0.00 0.00 0.00 78 1014.6
20260903012815 72 221 5.0 7.0 0.00 0.00 0.00 78 1014.6
20260903012310 72 251 8.0 9.0 0.00 0.00 0.00 78 1014.6
20260903011809 72 255 7.0 8.0 0.00 0.00 0.00 78 1014.6
20260903011308 73 231 3.0 7.0 0.00 0.00 0.00 77 1014.6
20260903010804 73 246 5.0 8.0 0.00 0.00 0.00 77 1014.2
20260903010300 73 243 6.0 7.0 0.00 0.00 0.00 77 1014.6
20260903005758 73 251 6.0 9.0 0.00 0.00 0.00 77 1014.6
20260903005253 73 220 9.0 11.0 0.00 0.00 0.00 77 1014.6
20260903004749 73 208 8.0 10.0 0.00 0.00 0.00 77 1014.6
20260903004244 73 232 8.0 9.0 0.00 0.00 0.00 78 1014.2
20260903003739 73 243 5.0 6.0 0.00 0.00 0.00 78 1014.6
20260903003234 74 238 5.0 6.0 0.00 0.00 0.00 78 1014.6
20260903002729 73 247 9.0 11.0 0.00 0.00 0.00 80 1014.2
20260903002223 73 250 10.0 14.0 0.00 0.00 0.00 80 1014.2
20260903001714 73 226 7.0 11.0 0.00 0.00 0.00 80 1014.6
20260903001212 73 239 6.0 8.0 0.00 0.00 0.00 80 1014.2
20260903000708 73 260 9.0 13.0 0.00 0.00 0.00 80 1014.6
20260903000207 73 245 8.0 9.0 0.00 0.00 0.00 79 1014.6
20260902235706 74 239 10.0 13.0 0.00 0.00 0.00 78 1014.6
20260902235202 74 281 7.0 11.0 0.00 0.00 0.00 78 1014.6
20260902234701 75 251 9.0 11.0 0.00 0.00 0.00 76 1014.6
20260902234159 75 242 4.0 6.0 0.00 0.00 0.00 77 1014.9
20260902233654 75 227 11.0 16.0 0.00 0.00 0.00 76 1014.6
20260902233154 74 259 10.0 10.0 0.00 0.00 0.00 77 1014.9
20260902232653 74 229 8.0 10.0 0.00 0.00 0.00 78 1014.9
20260902232153 75 254 11.0 14.0 0.00 0.00 0.00 76 1014.9
20260902231647 75 176 8.0 10.0 0.00 0.00 0.00 75 1014.6
20260902231142 75 218 7.0 8.0 0.00 0.00 0.00 76 1014.9
20260902230638 75 213 7.0 9.0 0.00 0.00 0.00 76 1014.9
20260902230136 75 252 5.0 10.0 0.00 0.00 0.00 76 1014.9
20260902225632 75 264 7.0 9.0 0.00 0.00 0.00 75 1014.9
20260902225131 76 219 3.0 5.0 0.00 0.00 0.00 74 1014.9
20260902224629 76 231 11.0 11.0 0.00 0.00 0.00 73 1014.9
20260902224125 76 245 6.0 8.0 0.00 0.00 0.00 72 1014.9
20260902223621 77 229 6.0 9.0 0.00 0.00 0.00 70 1014.9
20260902223120 77 238 7.0 8.0 0.00 0.00 0.00 70 1014.9
20260902222619 76 204 7.0 9.0 0.00 0.00 0.00 70 1015.2
20260902222119 77 233 10.0 13.0 0.00 0.00 0.00 68 1015.6
20260902221613 77 239 11.0 11.0 0.00 0.00 0.00 68 1014.9
20260902221108 76 236 7.0 8.0 0.00 0.00 0.00 66 1015.2
20260902220604 77 242 10.0 11.0 0.00 0.00 0.00 65 1015.2
20260902220058 77 228 7.0 9.0 0.00 0.00 0.00 61 1015.6
20260902215554 77 154 6.0 7.0 0.00 0.00 0.00 60 1015.6
20260902215049 77 200 5.0 7.0 0.00 0.00 0.00 58 1015.6
20260902214544 77 257 13.0 15.0 0.00 0.00 0.00 62 1015.6
20260902214043 77 210 2.0 3.0 0.00 0.00 0.00 63 1015.6
20260902213539 78 275 6.0 8.0 0.00 0.00 0.00 58 1015.9
20260902213038 76 212 7.0 10.0 0.00 0.00 0.00 61 1015.6
20260902212534 77 274 6.0 9.0 0.00 0.00 0.00 62 1015.9
20260902212030 75 231 7.0 10.0 0.00 0.00 0.00 67 1015.6
20260902211526 76 236 6.0 8.0 0.00 0.00 0.00 70 1015.9
20260902211020 76 244 5.0 8.0 0.00 0.00 0.00 66 1015.9
20260902210514 76 275 6.0 9.0 0.00 0.00 0.00 69 1016.2
20260902210014 76 242 5.0 9.0 0.00 0.00 0.00 67 1015.9
20260902205508 76 234 9.0 11.0 0.00 0.00 0.00 68 1016.2
20260902205004 77 178 4.0 6.0 0.00 0.00 0.00 65 1015.9
20260902204503 76 261 8.0 10.0 0.00 0.00 0.00 67 1016.2
20260902203959 76 207 8.0 11.0 0.00 0.00 0.00 65 1015.9
20260902203454 77 252 9.0 13.0 0.00 0.00 0.00 65 1015.9
20260902202953 76 258 7.0 8.0 0.00 0.00 0.00 69 1015.9
20260902202449 76 227 5.0 7.0 0.00 0.00 0.00 70 1016.2
20260902201946 77 175 8.0 10.0 0.00 0.00 0.00 70 1016.2
20260902201440 77 204 7.0 9.0 0.00 0.00 0.00 71 1015.9
20260902200940 77 144 5.0 7.0 0.00 0.00 0.00 70 1016.2
20260902200435 78 258 7.0 9.0 0.00 0.00 0.00 70 1016.2
20260902195930 78 238 5.0 7.0 0.00 0.00 0.00 70 1016.2
20260902195426 77 246 8.0 10.0 0.00 0.00 0.00 70 1016.6
20260902194920 76 206 4.0 7.0 0.00 0.00 0.00 71 1016.2
20260902194420 77 232 7.0 9.0 0.00 0.00 0.00 70 1016.2
20260902193915 77 155 5.0 6.0 0.00 0.00 0.00 71 1016.2
20260902193411 77 244 4.0 5.0 0.00 0.00 0.00 70 1016.6
20260902192910 77 243 6.0 8.0 0.00 0.00 0.00 72 1016.6
20260902192409 76 222 2.0 3.0 0.00 0.00 0.00 71 1016.6
20260902191908 77 264 5.0 8.0 0.00 0.00 0.00 71 1016.6
20260902191404 77 211 4.0 5.0 0.00 0.00 0.00 72 1016.6
20260902190858 76 224 5.0 6.0 0.00 0.00 0.00 73 1016.6
20260902190353 76 248 4.0 5.0 0.00 0.00 0.00 73 1016.6
20260902185849 77 214 4.0 6.0 0.00 0.00 0.00 72 1016.9
20260902185345 76 227 4.0 7.0 0.00 0.00 0.00 71 1016.9
20260902184840 76 166 6.0 8.0 0.00 0.00 0.00 73 1016.9
20260902184335 77 221 8.0 11.0 0.00 0.00 0.00 70 1016.6
20260902183830 77 244 8.0 9.0 0.00 0.00 0.00 72 1016.6
20260902183327 77 251 4.0 5.0 0.00 0.00 0.00 71 1016.9
20260902182817 77 68 2.0 3.0 0.00 0.00 0.00 69 1016.9
20260902182313 77 117 3.0 3.0 0.00 0.00 0.00 68 1016.9
20260902181809 78 79 0.0 0.0 0.00 0.00 0.00 67 1016.6
20260902181310 78 141 0.0 0.0 0.00 0.00 0.00 68 1016.6
20260902180804 77 132 0.0 0.0 0.00 0.00 0.00 72 1016.6
20260902180300 77 260 0.0 0.0 0.00 0.00 0.00 70 1016.9
20260902175755 75 24 0.0 0.0 0.00 0.00 0.00 75 1016.6
20260902175251 77 296 0.0 0.0 0.00 0.00 0.00 72 1016.9
20260902174746 77 293 0.0 0.0 0.00 0.00 0.00 70 1016.9
20260902174242 78 101 0.0 0.0 0.00 0.00 0.00 68 1016.9
20260902173738 76 63 0.0 0.0 0.00 0.00 0.00 70 1016.9
20260902173237 77 130 0.0 0.0 0.00 0.00 0.00 71 1016.9
20260902172732 76 62 0.0 0.0 0.00 0.00 0.00 71 1016.9
20260902172231 75 60 0.0 0.0 0.00 0.00 0.00 73 1016.9
20260902171726 75 110 0.0 0.0 0.00 0.00 0.00 74 1016.9
20260902171221 75 168 0.0 0.0 0.00 0.00 0.00 73 1016.6
20260902170718 74 170 0.0 0.0 0.00 0.00 0.00 73 1016.6
20260902170213 75 119 0.0 0.0 0.00 0.00 0.00 73 1016.9
20260902165708 74 79 0.0 0.0 0.00 0.00 0.00 75 1016.6
20260902165203 73 332 0.0 0.0 0.00 0.00 0.00 76 1016.9
20260902164657 72 1 0.0 0.0 0.00 0.00 0.00 78 1016.6
20260902164156 72 73 0.0 0.0 0.00 0.00 0.00 80 1016.6
20260902163652 71 126 0.0 0.0 0.00 0.00 0.00 81 1016.6
20260902163151 70 93 0.0 0.0 0.00 0.00 0.00 82 1016.6
20260902162650 71 130 0.0 0.0 0.00 0.00 0.00 81 1016.9
20260902162144 73 122 0.0 0.0 0.00 0.00 0.00 78 1016.6
20260902161640 73 85 0.0 0.0 0.00 0.00 0.00 78 1016.6
20260902161136 74 105 0.0 0.0 0.00 0.00 0.00 77 1016.6
20260902160632 73 41 0.0 0.0 0.00 0.00 0.00 79 1016.6
20260902160127 72 41 0.0 0.0 0.00 0.00 0.00 81 1016.6
20260902155625 71 64 0.0 0.0 0.00 0.00 0.00 82 1016.6
20260902155124 71 110 0.0 0.0 0.00 0.00 0.00 82 1016.6
20260902154619 71 59 0.0 0.0 0.00 0.00 0.00 81 1016.6
20260902154114 71 66 0.0 0.0 0.00 0.00 0.00 82 1016.6
20260902153613 70 63 0.0 0.0 0.00 0.00 0.00 84 1016.6
20260902153108 70 80 0.0 0.0 0.00 0.00 0.00 84 1016.6
20260902152604 70 88 0.0 0.0 0.00 0.00 0.00 85 1016.6
20260902152059 69 65 0.0 0.0 0.00 0.00 0.00 86 1016.6
20260902151555 69 91 0.0 0.0 0.00 0.00 0.00 86 1016.6
20260902151054 69 49 0.0 0.0 0.00 0.00 0.00 87 1016.6
20260902150544 68 48 0.0 0.0 0.00 0.00 0.00 87 1016.6
20260902150040 67 48 0.0 0.0 0.00 0.00 0.00 90 1016.6
20260902145534 67 59 0.0 0.0 0.00 0.00 0.00 91 1016.6
20260902145028 66 60 0.0 0.0 0.00 0.00 0.00 93 1016.6
20260902144525 65 61 0.0 0.0 0.00 0.00 0.00 94 1016.6
20260902144020 65 63 0.0 0.0 0.00 0.00 0.00 95 1016.2
20260902143515 64 68 0.0 0.0 0.00 0.00 0.00 96 1016.6
20260902143010 63 68 0.0 0.0 0.00 0.00 0.00 96 1016.6
20260902142506 63 69 0.0 0.0 0.00 0.00 0.00 97 1016.6
20260902142001 63 68 0.0 0.0 0.00 0.00 0.00 97 1016.2
20260902141455 62 70 0.0 0.0 0.00 0.00 0.00 98 1016.2
20260902140949 61 68 0.0 0.0 0.00 0.00 0.00 98 1016.2
20260902140445 61 68 0.0 0.0 0.00 0.00 0.00 98 1016.6
20260902135939 60 68 0.0 0.0 0.00 0.00 0.00 98 1016.2
20260902135434 60 68 0.0 0.0 0.00 0.00 0.00 98 1016.2
20260902134933 60 69 0.0 0.0 0.00 0.00 0.00 98 1015.9
20260902134429 59 66 0.0 0.0 0.00 0.00 0.00 99 1016.2
20260902133924 59 66 0.0 0.0 0.00 0.00 0.00 98 1015.9
20260902133419 59 66 0.0 0.0 0.00 0.00 0.00 98 1015.9
20260902132914 59 68 0.0 0.0 0.00 0.00 0.00 98 1015.9
20260902132409 59 68 0.0 0.0 0.00 0.00 0.00 98 1015.9
20260902131904 59 68 0.0 0.0 0.00 0.00 0.00 98 1015.6
20260902131401 59 68 0.0 0.0 0.00 0.00 0.00 98 1015.6
20260902130859 59 68 0.0 0.0 0.00 0.00 0.00 98 1015.9
20260902130356 60 68 0.0 0.0 0.00 0.00 0.00 98 1015.6
20260902125850 59 68 0.0 0.0 0.00 0.00 0.00 98 1015.9
20260902125346 59 68 0.0 0.0 0.00 0.00 0.00 98 1015.6
20260902124842 60 68 0.0 0.0 0.00 0.00 0.00 97 1015.6
20260902124338 60 68 0.0 0.0 0.00 0.00 0.00 98 1015.6
20260902123833 60 68 0.0 0.0 0.00 0.00 0.00 97 1015.6
20260902123330 60 68 0.0 0.0 0.00 0.00 0.00 97 1015.9
20260902122828 60 68 0.0 0.0 0.00 0.00 0.00 97 1015.9
20260902122325 60 65 0.0 0.0 0.00 0.00 0.00 97 1015.9
20260902121824 60 68 0.0 0.0 0.00 0.00 0.00 97 1015.9
20260902121319 60 65 0.0 0.0 0.00 0.00 0.00 96 1015.9
20260902120815 60 65 0.0 0.0 0.00 0.00 0.00 96 1015.9
20260902120311 60 65 0.0 0.0 0.00 0.00 0.00 96 1015.9
20260902115805 60 65 0.0 0.0 0.00 0.00 0.00 96 1015.9
20260902115301 60 65 0.0 0.0 0.00 0.00 0.00 96 1016.2
20260902114757 60 65 0.0 0.0 0.00 0.00 0.00 96 1015.9
20260902114253 60 65 0.0 0.0 0.00 0.00 0.00 96 1015.6
20260902113747 60 65 0.0 0.0 0.00 0.00 0.00 96 1015.9
20260902113243 60 69 0.0 0.0 0.00 0.00 0.00 96 1015.9
20260902112743 60 65 0.0 0.0 0.00 0.00 0.00 95 1015.9
20260902112240 61 69 0.0 0.0 0.00 0.00 0.00 95 1015.9
20260902111735 60 65 0.0 0.0 0.00 0.00 0.00 95 1015.9
20260902111231 61 65 0.0 0.0 0.00 0.00 0.00 95 1015.9
20260902110727 61 65 0.0 0.0 0.00 0.00 0.00 95 1015.9
20260902110222 61 65 0.0 0.0 0.00 0.00 0.00 95 1015.9
20260902105721 61 65 0.0 0.0 0.00 0.00 0.00 95 1015.9
20260902105217 62 65 0.0 0.0 0.00 0.00 0.00 95 1015.9
20260902104712 62 65 0.0 0.0 0.00 0.00 0.00 95 1015.9
20260902104208 62 67 0.0 0.0 0.00 0.00 0.00 95 1015.9
20260902103707 62 67 0.0 0.0 0.00 0.00 0.00 95 1015.9
20260902103202 62 67 0.0 0.0 0.00 0.00 0.00 94 1015.9
20260902102658 62 67 0.0 0.0 0.00 0.00 0.00 94 1015.9
20260902102155 62 67 0.0 0.0 0.00 0.00 0.00 94 1015.9
20260902101651 62 67 0.0 0.0 0.00 0.00 0.00 94 1015.9
20260902101150 62 67 0.0 0.0 0.00 0.00 0.00 94 1015.9
20260902100645 62 67 0.0 0.0 0.00 0.00 0.00 94 1015.9
20260902100140 63 67 0.0 0.0 0.00 0.00 0.00 94 1015.9
20260902095638 62 70 0.0 0.0 0.00 0.00 0.00 94 1016.2
20260902095132 62 70 0.0 0.0 0.00 0.00 0.00 94 1016.6
20260902094627 62 69 0.0 0.0 0.00 0.00 0.00 93 1016.2
20260902094124 63 69 0.0 0.0 0.00 0.00 0.00 93 1015.9
20260902093623 63 70 0.0 0.0 0.00 0.00 0.00 93 1015.9
20260902093112 63 72 0.0 0.0 0.00 0.00 0.00 93 1016.2
20260902092612 63 72 0.0 0.0 0.00 0.00 0.00 92 1016.6
20260902092108 63 73 0.0 0.0 0.00 0.00 0.00 92 1016.2
20260902091603 63 75 0.0 0.0 0.00 0.00 0.00 92 1016.2
20260902091059 63 75 0.0 0.0 0.00 0.00 0.00 92 1016.2
20260902090555 64 78 0.0 0.0 0.00 0.00 0.00 92 1016.2
20260902090053 63 70 0.0 0.0 0.00 0.00 0.00 93 1016.2
20260902085548 63 69 0.0 0.0 0.00 0.00 0.00 93 1016.2
20260902085043 63 69 0.0 0.0 0.00 0.00 0.00 92 1016.2
20260902084539 63 69 0.0 0.0 0.00 0.00 0.00 92 1016.2
20260902084035 63 69 0.0 0.0 0.00 0.00 0.00 92 1016.2
20260902083525 64 65 0.0 0.0 0.00 0.00 0.00 92 1016.2
20260902083024 64 65 0.0 0.0 0.00 0.00 0.00 92 1016.2
20260902082520 64 69 0.0 0.0 0.00 0.00 0.00 92 1016.6
20260902082017 64 69 0.0 0.0 0.00 0.00 0.00 91 1016.6
20260902081513 64 67 0.0 0.0 0.00 0.00 0.00 91 1016.2
20260902081013 64 70 0.0 0.0 0.00 0.00 0.00 91 1016.2
20260902080509 64 70 0.0 0.0 0.00 0.00 0.00 91 1016.2
20260902080004 64 78 0.0 0.0 0.00 0.00 0.00 91 1016.2
20260902075459 64 81 0.0 0.0 0.00 0.00 0.00 91 1016.2
20260902074955 64 82 0.0 0.0 0.00 0.00 0.00 90 1016.2
20260902074450 64 83 0.0 0.0 0.00 0.00 0.00 90 1016.6
20260902073950 65 84 0.0 0.0 0.00 0.00 0.00 90 1016.2
20260902073446 65 86 0.0 0.0 0.00 0.00 0.00 90 1016.2
20260902072942 65 86 0.0 0.0 0.00 0.00 0.00 90 1015.9
20260902072438 64 84 0.0 0.0 0.00 0.00 0.00 90 1015.9
20260902071934 65 84 0.0 0.0 0.00 0.00 0.00 90 1015.9
20260902071433 65 84 0.0 0.0 0.00 0.00 0.00 90 1015.9
20260902070930 65 85 0.0 0.0 0.00 0.00 0.00 90 1015.9
20260902070425 65 85 0.0 0.0 0.00 0.00 0.00 89 1015.6
20260902065923 65 86 0.0 0.0 0.00 0.00 0.00 89 1015.6
20260902065419 65 89 0.0 0.0 0.00 0.00 0.00 88 1015.9
20260902064914 65 91 0.0 0.0 0.00 0.00 0.00 88 1015.6
20260902064410 66 98 0.0 0.0 0.00 0.00 0.00 88 1015.6